Regional Weather Roundup
Issued by NWS

Home | Current Version | Previous Version | Text Only | Print | Product List | Glossary Off
Versions: 1 2 3 4 5 6 7 8 9 10 11 12 13 14 15 16 17 18 19 20 21 22 23 24 25 26 27 28 29 30 31 32 33 34 35 36 37 38 39 40 41 42 43 44 45 46 47 48 49 50

000
ASUS44 KMEG 042000
RWRTN
TENNESSEE HOURLY STATE WEATHER ROUNDUP
NATIONAL WEATHER SERVICE MEMPHIS TN
300 PM CDT FRI SEP 04 2015

TNZ002-004-019-021-049-052-054-088>092-042100-
WEST TENNESSEE

CITY           SKY/WX    TMP DP  RH WIND       PRES   REMARKS
MEMPHIS INTL   PTSUNNY   91  67  44 CALM      29.99F HX  94
NWS MEMPHIS      N/A     95 N/A N/A MISG        N/A
JACKSON        MOSUNNY   91  69  48 CALM      30.00F HX  96
DYERSBURG      PTSUNNY   91  70  49 N3        30.00F HX  97
UNION CITY     SUNNY     91  70  49 NW6       29.99F HX  97
PARIS          SUNNY     91  66  43 SE3       30.01F HX  94
LEXINGTON      MOSUNNY   93  66  40 VRB5      29.99F HX  96
$$

TNZ008-025-027-028-033-062-065-066-042100-
NORTH MIDDLE TENNESSEE

CITY           SKY/WX    TMP DP  RH WIND       PRES   REMARKS
NASHVILLE      PTSUNNY   92  62  36 VRB6      30.01F HX  92
CLARKSVILLE    MOSUNNY   91  66  43 CALM      30.00F HX  93
COOKEVILLE     MOSUNNY   91  66  43 E7        30.03F HX  94
CROSSVILLE     MOSUNNY   87  63  44 VRB3      30.09F
$$

TNZ061-075-076-078-094-096-097-042100-
SOUTH MIDDLE TENNESSEE

CITY           SKY/WX    TMP DP  RH WIND       PRES   REMARKS
FAYETTEVILLE     N/A     88  63  42 NE3       30.02F
TULLAHOMA      SUNNY     88  64  45 N7        30.05F
WINCHESTER     MOSUNNY   90  68  48 VRB5      30.02F HX  93
MCMINNVILLE    SUNNY     90  70  51 NE10      30.04F HX  95
COLUMBIA       SUNNY     93  66  40 E8        29.99F HX  96
SHELBYVILLE    MOSUNNY   91  70  49 NE6       30.03F HX  97
$$

TNZ017-018-042-046-047-042100-
NORTHEAST TENNESSEE

CITY           SKY/WX    TMP DP  RH WIND       PRES   REMARKS
TRI CITIES     MOSUNNY   91  62  37 VRB3      30.05F HX  91
ELIZABETHTON   MOCLDY    86  63  45 N5        30.05F
$$

TNZ012-013-036-069-073-074-042100-
CENTRAL EAST TENNESSEE

CITY           SKY/WX    TMP DP  RH WIND       PRES   REMARKS
KNOXVILLE      MOSUNNY   91  63  39 NE13      30.01F HX  92
OAK RIDGE      SUNNY     93  64  38 CALM      30.04F HX  94
GATLINBURG       N/A     91  57  31 N9        30.00F HX  90
$$

TNZ083-085-099-042100-
SOUTHEAST TENNESSEE

CITY           SKY/WX    TMP DP  RH WIND       PRES   REMARKS
CHATTANOOGA    MOSUNNY   92  68  45 N10       30.01F HX  96
$$

SKY/WX REPORTED AS FAIR MEANS FEW OR NO CLOUDS BELOW
12 THOUSAND FEET.




USA.gov is the U.S. government's official web portal to all federal, state and local government web resources and services.